{"data":{"norad_id":63813,"epoch":"2026-09-20T09:05:08.008224Z","epoch_age_seconds":160136,"freshness":"FRESH","line1":"1 63813U 25092K   26263.37856491  .00012477  00000+0  46208-3 0  9994","line2":"2 63813  42.9984 149.2006 0001520 265.0596  95.0082 15.27584943 78379","mean_motion":15.27584943,"eccentricity":0.000152,"inclination_deg":42.9984,"raan_deg":149.2006,"arg_perigee_deg":265.0596,"mean_anomaly_deg":95.0082,"bstar":0.00046208,"rev_number":7837,"period_min":94.266443682798,"perigee_km":481.9913969225,"apogee_km":484.07719299616,"semimajor_km":6861.1712949593,"source":"CELESTRAK","updated_at":"2026-09-21T09:00:35.105545Z"}}